Theta_e
319 317 318 318 319 318 317 318 320 321 322 325 326 325 325 325 326 326 325 326 326 324 321 318 318 317 316 315 313 312 312 312 312 311 311 311 311 310 310 309 309 309 309 310 310 310 310 310 310 310 311 312 314 316 319 323 326 327 327 326 328 327 328 330 330 329 329 329 329 329 329 329 329 328 327 326 325 323 322 321 320 319 319 319 320 320 322
318 318 317 318 319 319 318 320 320 321 323 324 324 323 323 324 325 325 324 325 323 320 318 317 315 314 314 312 311 311 310 310 310 310 310 310 310 309 309 308 308 307 308 309 309 309 309 309 309 309 309 310 310 311 314 318 323 325 325 325 327 328 328 328 328 328 327 327 328 328 329 329 327 327 326 325 324 322 320 319 318 318 318 318 320 321 322
318 318 318 317 319 321 321 321 320 319 321 322 322 321 321 323 325 323 322 324 322 318 315 314 312 311 311 310 310 310 309 309 309 309 309 309 309 308 308 307 307 306 307 308 308 308 308 308 308 308 308 308 308 309 311 314 318 322 324 324 326 327 326 326 326 327 326 326 326 327 328 328 327 326 325 323 321 320 319 319 318 317 318 319 321 321 321
318 319 320 320 320 320 320 319 318 319 320 321 320 319 319 320 322 322 322 323 322 317 314 312 310 309 308 308 308 309 309 309 309 308 308 308 308 307 307 306 306 305 306 307 307 307 307 307 307 307 307 307 307 307 309 311 315 320 323 324 325 326 326 325 326 327 327 326 326 326 327 327 326 326 324 323 321 320 320 319 318 319 320 321 321 320 319
317 318 321 321 321 321 320 317 316 318 319 318 318 317 316 317 319 321 322 321 318 315 313 310 308 307 307 307 307 307 308 309 308 307 307 307 307 306 306 306 305 305 305 305 306 306 306 306 307 306 306 306 306 306 307 309 311 314 318 319 320 322 323 325 326 327 327 326 326 326 326 326 325 325 324 324 323 322 322 321 321 322 322 320 319 318 316
316 318 321 320 320 321 319 315 314 316 317 316 316 315 315 315 315 318 319 317 313 312 310 308 307 305 305 306 306 306 307 308 308 307 306 306 306 306 305 305 305 305 305 305 304 305 305 305 305 306 306 305 305 305 306 307 307 308 310 313 314 317 319 321 322 323 324 324 325 325 324 324 324 323 323 324 324 324 324 323 322 321 320 319 317 316 313
316 318 318 318 320 320 317 313 312 313 315 315 314 313 312 312 313 314 315 313 311 310 308 306 305 304 304 304 304 305 306 307 307 307 306 305 305 305 304 304 304 304 304 304 304 304 304 304 304 305 304 304 304 303 304 305 305 305 306 307 310 312 314 316 318 319 319 319 320 320 320 320 321 321 321 321 322 322 322 321 319 318 317 316 315 313 311
315 316 317 318 319 317 315 313 311 312 313 314 314 313 311 310 311 312 312 312 310 308 308 306 305 305 304 304 303 304 305 306 307 307 306 305 305 305 304 304 304 304 304 303 303 303 303 304 304 303 303 303 303 302 302 303 304 304 304 304 305 307 309 311 313 315 315 315 315 316 316 317 317 317 317 318 318 319 319 318 317 316 315 314 312 311 310
314 316 317 318 317 316 314 313 311 311 311 311 313 313 311 309 309 310 311 311 309 308 308 307 307 307 306 305 303 302 303 304 305 305 305 304 304 304 303 303 303 303 302 303 303 303 302 303 303 303 303 302 302 301 301 301 302 303 303 303 303 304 305 307 309 311 311 312 312 312 313 313 313 314 314 315 315 316 316 316 315 315 314 313 311 310 309
313 314 317 317 318 318 314 312 310 310 310 310 310 312 311 308 308 308 309 309 308 308 308 307 307 309 308 305 303 302 302 304 305 304 303 303 303 303 302 302 302 302 302 302 302 302 302 301 302 302 302 302 302 301 301 300 301 301 301 302 302 303 303 304 306 307 308 308 309 309 309 309 310 310 311 312 312 313 313 313 313 313 313 313 311 310 308
314 314 316 316 317 315 311 310 310 309 310 309 310 314 313 308 307 307 307 308 308 307 307 305 306 309 308 304 301 301 303 304 304 303 303 302 302 302 302 302 302 302 302 301 301 301 301 301 301 301 301 302 302 302 301 301 300 300 300 301 301 302 303 303 304 305 305 306 306 307 307 307 307 308 308 308 309 309 310 310 309 309 310 310 309 308 308
313 314 315 314 313 311 309 308 309 309 309 309 313 318 314 308 306 307 306 306 306 305 305 303 303 305 305 302 301 302 303 304 303 302 302 301 301 301 301 302 302 301 301 301 301 301 301 301 301 300 300 301 301 301 301 301 301 301 300 300 301 301 302 302 303 303 304 304 305 305 306 306 306 307 307 307 307 307 307 307 307 307 307 306 305 305 305
312 314 315 313 311 309 307 307 308 308 309 311 315 315 310 306 305 305 303 303 302 301 302 301 300 300 299 299 301 302 302 302 302 301 300 300 300 301 301 301 301 301 301 301 301 301 301 301 301 300 300 301 301 301 301 301 301 301 301 301 300 300 301 302 302 302 303 303 303 304 305 305 306 306 307 307 307 307 306 306 307 307 307 306 305 304 303
314 314 313 313 311 308 306 308 308 308 311 313 312 308 305 304 304 302 301 300 299 299 299 298 298 297 297 299 301 301 301 301 301 301 300 300 300 300 300 301 301 301 301 301 301 301 301 301 301 301 301 301 301 302 301 301 301 301 301 301 301 301 300 301 301 302 302 302 302 302 303 303 304 305 306 306 307 308 307 307 307 307 306 305 303 303 302
314 313 312 313 312 308 307 308 309 308 310 311 308 304 303 303 302 301 300 300 299 299 299 298 298 299 299 300 301 300 300 301 301 300 300 300 300 300 300 301 301 301 301 301 301 301 301 301 301 301 301 302 302 302 302 302 302 302 302 302 302 302 301 300 301 301 301 302 302 302 302 302 303 304 304 305 306 306 307 307 307 307 307 306 306 305 304
310 311 310 310 309 307 307 308 309 308 307 307 306 304 303 302 301 300 300 300 300 300 300 300 301 301 301 301 301 301 301 301 301 301 301 301 301 301 301 301 301 301 301 301 301 301 301 301 301 301 301 301 301 302 302 302 302 303 302 302 302 302 302 302 301 300 299 299 300 301 301 302 302 303 303 304 304 305 305 306 306 305 306 307 307 307 306
308 309 308 308 307 307 308 307 307 306 305 304 304 303 302 301 301 300 300 301 301 301 301 301 301 301 301 301 301 301 302 302 302 302 302 301 301 301 301 301 301 301 301 301 301 300 300 300 301 301 301 301 301 301 302 302 302 303 303 302 302 301 301 302 302 301 301 300 299 299 299 300 301 302 303 303 303 303 303 304 303 303 303 304 305 306 306
308 308 308 309 308 308 307 306 306 305 304 303 303 302 302 302 301 301 301 301 301 301 300 300 300 301 301 300 301 301 301 301 301 300 301 301 301 300 300 300 301 301 301 300 300 300 300 300 300 300 301 301 301 301 301 302 302 302 302 302 302 301 301 301 302 302 302 302 301 301 301 301 301 302 302 302 302 302 303 303 302 303 303 303 303 304 304
309 308 308 308 307 307 306 305 305 305 304 303 303 302 302 301 301 301 301 301 300 300 300 300 300 301 301 301 301 301 301 301 300 299 299 300 300 300 300 300 300 300 300 300 300 300 300 300 300 300 300 300 300 301 301 301 301 302 302 302 302 302 301 301 301 302 302 301 301 301 301 302 302 302 302 301 300 300 301 302 303 303 303 303 303 304 304
308 307 307 305 305 305 305 305 305 304 304 303 303 302 302 302 301 301 301 301 301 301 301 301 301 300 300 301 301 301 301 300 300 299 299 299 299 300 300 299 299 299 300 299 299 299 298 298 298 299 300 300 300 300 300 301 301 301 301 301 301 301 301 301 301 302 302 301 301 301 300 299 300 301 301 299 297 296 297 299 301 302 301 301 302 302 302
306 306 305 304 305 304 304 304 304 304 304 303 303 303 302 302 302 302 302 302 302 302 302 302 301 300 300 300 300 300 300 300 300 300 300 300 300 300 300 300 300 299 299 299 299 298 298 298 298 299 299 300 300 300 300 300 300 301 301 301 300 300 299 300 301 301 301 302 302 301 300 299 298 298 299 298 297 296 296 296 298 299 299 299 300 301 300
306 305 305 305 305 304 304 304 304 304 303 303 303 303 303 302 302 302 302 302 302 302 302 301 301 301 300 300 300 300 300 300 300 300 300 300 300 300 300 300 300 300 300 300 299 299 299 298 298 298 299 300 300 300 300 300 300 300 300 301 301 300 299 300 300 301 301 301 301 302 301 300 299 298 297 297 297 297 297 296 297 297 297 297 299 300 299
306 305 305 305 305 304 304 303 303 303 304 303 303 303 303 302 302 302 302 302 302 302 301 301 301 301 300 300 300 300 300 300 300 300 300 300 299 300 300 300 300 300 300 299 299 299 299 298 298 298 298 299 299 300 300 300 300 300 300 301 301 300 300 300 300 300 300 301 301 301 301 301 300 299 297 297 297 297 297 297 297 297 297 297 297 298 297
305 304 304 305 304 304 303 303 302 303 303 303 303 303 303 303 303 303 303 303 302 302 302 302 302 301 301 301 301 300 300 299 299 299 300 299 299 300 300 300 299 299 299 299 299 299 299 298 297 297 298 299 299 300 300 300 300 300 300 300 300 299 298 299 300 300 300 300 300 300 300 301 301 301 299 298 298 298 297 297 297 297 297 297 296 296 296
304 304 304 304 303 303 303 302 302 302 302 302 302 302 302 303 303 303 303 303 303 303 303 303 302 302 302 301 301 300 300 300 299 299 300 299 299 299 299 299 299 298 298 298 298 298 298 298 297 297 298 298 299 299 300 300 300 300 300 300 299 298 297 298 300 300 299 300 300 300 300 300 300 300 301 300 299 298 298 297 297 297 297 297 296 296 296
304 304 303 303 303 302 302 302 302 301 302 301 301 302 301 301 301 302 302 302 302 302 302 302 302 301 301 301 300 300 300 299 299 299 299 299 299 299 298 298 298 298 298 298 298 298 298 298 298 298 298 298 299 299 300 300 300 300 300 300 299 299 298 298 299 299 299 299 299 299 300 300 300 300 300 300 300 300 299 298 297 297 296 296 296 296 296
303 303 303 303 303 302 302 302 302 302 301 301 301 301 301 301 301 301 300 300 301 300 301 301 301 300 301 300 300 299 299 299 299 299 299 299 299 298 298 298 297 297 297 297 297 298 298 298 298 298 298 298 298 299 299 299 300 300 300 300 300 300 299 299 299 299 299 299 298 298 299 299 299 299 299 299 299 300 300 299 299 299 298 296 296 296 296
303 303 303 303 303 302 302 302 302 301 301 301 301 301 301 301 301 301 301 301 300 300 300 300 300 300 300 300 300 300 300 299 300 299 299 299 298 298 297 297 296 296 296 296 296 297 297 298 298 298 298 298 298 298 299 299 300 300 300 300 300 299 299 299 298 299 299 298 297 297 298 299 299 299 299 299 299 299 299 299 299 299 299 297 296 296 296
302 303 303 302 302 302 302 302 301 301 301 301 301 301 301 301 300 300 301 300 300 301 300 300 300 300 300 300 300 300 300 299 299 299 299 299 298 297 297 296 296 296 296 295 296 297 297 297 297 298 298 298 298 298 298 299 299 300 300 300 300 299 299 298 297 297 298 298 298 297 298 299 299 299 298 298 298 298 298 298 297 298 299 298 297 297 297
302 302 302 302 302 302 302 301 301 300 301 301 301 301 301 301 300 300 300 301 301 301 301 300 300 300 300 300 300 299 299 299 299 299 298 298 297 296 296 295 296 295 295 296 297 298 298 298 298 297 297 297 297 297 298 299 299 299 300 300 300 299 299 297 296 296 298 298 298 298 298 298 298 298 298 298 298 298 298 298 297 297 298 298 297 297 296
302 302 302 302 302 302 301 301 301 301 301 301 301 301 301 301 301 300 300 300 301 300 300 300 300 300 300 300 300 299 299 299 298 298 298 297 296 295 295 295 295 295 295 296 297 298 298 298 298 298 298 297 297 297 297 298 299 299 299 300 300 299 298 297 296 296 297 297 297 298 298 298 298 298 297 297 297 297 297 297 297 297 297 297 297 296 295
302 302 302 301 302 302 301 301 301 301 301 301 301 301 301 301 300 300 300 300 300 300 300 300 300 300 300 300 300 299 298 297 296 296 296 295 295 294 293 294 295 296 296 297 297 297 298 298 298 298 298 298 298 298 297 298 298 299 299 299 300 299 298 298 297 296 296 297 297 298 298 298 298 298 298 297 297 297 297 297 297 297 297 297 296 295 295
302 301 301 301 301 301 301 301 301 301 301 301 301 301 301 300 300 300 300 300 300 300 300 300 300 301 300 300 300 299 297 296 295 295 295 295 295 294 293 293 295 296 296 296 297 297 298 298 298 297 297 298 298 298 298 297 297 298 299 299 299 299 298 298 297 297 297 297 298 298 297 297 297 298 297 297 296 296 296 297 296 296 296 296 296 295 294
302 302 302 301 301 301 301 301 301 301 301 301 301 301 300 300 300 301 300 300 300 301 300 300 300 300 300 299 298 297 296 296 296 296 295 295 295 294 293 294 295 295 295 295 297 298 298 298 298 297 297 297 298 298 298 297 298 299 299 299 299 299 299 299 298 297 297 297 297 298 298 297 297 297 297 297 296 296 295 296 296 296 296 296 295 295 294
302 301 301 301 301 301 301 301 301 301 301 301 301 301 300 300 300 300 300 300 300 301 300 300 300 299 298 298 297 296 296 296 296 295 295 295 295 294 293 294 295 295 294 295 297 298 298 298 298 297 297 297 297 298 297 297 298 299 299 299 299 299 299 298 298 297 297 297 297 297 298 297 297 297 296 296 296 296 295 295 295 296 296 296 295 295 295
301 301 301 301 301 301 301 301 301 301 301 301 301 300 300 300 300 300 300 300 300 300 300 300 300 299 298 297 296 296 296 296 296 296 295 295 295 293 293 293 295 295 295 296 297 298 298 298 297 297 296 297 297 297 297 297 298 299 299 299 299 299 299 298 298 297 297 296 297 297 296 296 296 296 296 296 296 295 295 295 295 295 295 295 295 295 295
301 301 301 301 301 301 301 301 301 300 300 301 300 300 300 300 300 300 300 300 300 300 300 300 300 299 298 297 296 296 296 296 296 295 295 295 295 294 293 294 295 295 295 296 298 298 298 298 296 296 296 296 297 297 297 298 298 299 298 298 299 299 298 298 297 297 297 297 297 297 296 296 296 296 295 295 295 295 295 295 295 295 295 295 295 294 294
301 301 301 301 300 300 301 301 300 300 300 300 300 300 300 300 300 300 300 300 301 300 300 300 300 299 298 297 297 296 296 296 296 296 295 295 295 294 294 294 295 296 296 296 297 298 298 297 296 296 296 297 297 297 297 297 298 298 298 298 298 298 298 298 297 297 296 296 297 297 297 296 296 296 296 295 295 295 295 295 295 295 295 295 294 294 294
301 301 301 301 301 301 301 300 300 300 300 300 300 300 300 300 300 300 300 301 301 300 300 300 300 300 299 299 299 298 297 297 297 296 296 295 295 295 295 295 296 296 296 296 297 298 297 297 297 297 298 297 297 298 298 297 297 297 298 298 299 299 298 297 297 296 296 296 296 296 297 296 296 296 296 295 295 295 295 295 295 295 295 295 294 294 294
301 301 301 301 301 301 301 300 300 300 300 300 300 300 300 300 300 301 301 301 301 301 301 301 300 300 300 300 300 299 299 299 298 297 296 295 295 296 296 296 296 296 296 296 296 296 295 296 297 298 298 297 297 297 297 297 297 298 298 298 298 298 298 297 297 296 296 296 296 296 296 296 296 296 295 295 295 295 295 295 295 295 295 295 294 294 294
301 301 301 301 300 300 300 300 300 300 300 300 300 300 300 301 301 301 301 301 301 301 301 301 301 300 300 300 299 300 300 299 299 298 297 296 296 297 297 296 297 296 295 295 294 294 294 295 297 298 298 298 297 297 296 295 296 297 297 297 297 297 297 297 297 297 296 296 296 296 296 296 295 295 295 295 295 295 295 295 295 295 295 295 295 294 294
301 301 301 300 300 301 300 300 300 300 300 300 300 300 300 301 301 301 301 301 301 300 300 300 300 300 300 300 299 299 299 299 299 299 299 298 298 298 297 297 296 295 294 293 293 294 295 296 297 297 297 297 297 296 295 294 294 295 296 296 296 297 297 296 297 296 296 295 295 296 296 296 296 296 295 295 295 295 295 295 295 295 295 295 295 294 294
301 301 301 301 301 300 300 300 300 300 300 300 300 300 300 301 301 301 301 301 300 300 300 300 300 300 300 300 300 299 300 300 299 299 299 299 299 298 298 297 296 294 292 292 292 292 293 295 297 297 296 296 295 295 295 294 293 294 294 295 295 296 296 296 296 296 296 296 295 296 296 296 296 296 295 295 295 295 295 295 295 295 295 295 294 294 294
301 301 301 301 300 300 300 300 300 300 300 300 300 300 300 300 300 301 301 300 300 300 300 300 300 300 300 300 300 300 300 300 299 299 299 299 298 298 298 297 296 294 293 292 292 292 293 294 295 296 295 294 294 294 294 294 294 294 294 294 295 295 295 296 296 296 296 296 296 295 295 296 296 296 296 295 295 295 295 295 295 295 295 295 294 294 294
301 301 300 300 300 300 300 300 300 300 300 300 300 300 300 300 300 300 300 301 301 300 300 300 300 300 300 300 300 300 300 300 299 299 298 298 298 298 297 296 295 294 293 292 291 292 293 294 294 293 293 293 292 292 293 294 294 294 294 294 294 294 295 295 296 296 296 296 296 295 295 295 295 296 295 295 295 295 295 295 295 295 294 294 294 294 294
300 300 300 300 300 300 300 299 300 299 299 299 300 300 300 300 300 300 301 300 300 300 300 300 300 300 300 300 300 300 300 299 299 298 298 298 298 297 296 295 295 294 292 291 291 293 294 294 293 292 292 291 291 291 292 293 294 294 294 294 294 294 294 295 295 296 296 296 296 295 295 295 295 295 295 295 295 295 295 294 294 294 294 294 294 294 294
300 300 300 300 300 300 299 299 299 299 299 300 300 300 300 299 300 300 301 300 300 300 300 300 300 300 300 300 300 300 299 299 298 298 298 298 297 297 296 295 295 294 292 292 292 292 293 292 291 290 290 289 289 289 291 292 293 294 294 294 294 293 294 294 295 295 296 296 295 295 295 295 294 294 295 295 295 294 294 294 294 294 294 294 294 293 293
300 300 300 299 299 299 299 299 299 299 299 299 299 299 299 299 300 300 300 300 300 300 300 300 300 300 300 299 299 299 299 299 299 298 298 298 297 296 296 295 295 294 293 293 293 292 292 292 290 289 287 287 288 289 290 292 293 293 294 294 294 293 293 293 294 295 295 295 295 295 295 295 294 294 294 294 294 294 294 294 294 294 294 294 294 293 293
300 300 299 299 299 299 299 299 299 299 299 299 300 300 300 300 300 300 300 300 300 300 300 300 300 300 299 299 299 299 298 298 298 298 298 298 297 297 296 295 294 294 293 294 294 293 293 293 292 289 287 288 289 291 292 293 293 293 294 294 293 293 293 294 294 295 295 295 295 295 295 295 294 294 294 294 294 294 294 294 294 294 294 294 293 293 293
300 299 299 299 299 299 299 299 299 299 299 299 299 300 300 299 300 300 300 300 299 299 300 299 299 299 299 299 299 298 298 298 298 298 298 298 298 297 296 296 295 294 294 294 294 294 293 293 293 291 289 289 291 293 293 293 293 294 293 293 293 292 293 294 295 295 295 295 295 295 295 295 294 294 294 294 294 294 294 294 294 294 294 294 293 293 293
299 299 299 299 299 298 299 299 299 299 299 299 299 299 299 299 299 300 300 299 298 299 299 299 299 299 299 299 299 298 297 297 297 297 297 297 297 297 297 296 295 294 293 293 294 294 294 293 293 292 291 291 291 292 292 292 292 292 292 292 293 293 293 294 295 295 295 295 295 295 295 295 294 294 294 294 294 293 293 293 293 293 293 293 293 293 293
299 299 299 299 298 298 298 299 299 299 299 299 299 299 299 298 299 299 299 299 298 299 299 299 299 299 299 299 298 297 297 297 297 296 297 296 296 296 296 296 295 294 294 294 294 294 294 294 293 293 292 292 292 292 292 292 291 290 291 293 294 293 293 293 293 293 293 294 294 294 295 294 294 294 294 294 293 293 293 293 293 293 293 293 293 293 292
Wind_Speed
7 5 3 3 5 5 4 3 3 3 5 8 7 5 4 4 1 1 3 3 4 6 8 8 8 8 9 10 10 10 10 10 10 10 11 12 13 13 13 13 14 14 14 14 17 21 23 23 23 21 20 22 25 23 19 15 10 8 4 4 8 11 14 17 21 25 25 24 24 23 24 24 21 19 18 17 16 15 14 12 10 9 9 8 7 10 11
7 4 3 1 6 8 2 4 7 7 8 9 8 7 7 5 5 4 3 6 8 7 7 8 9 8 9 9 10 11 12 12 12 12 12 13 13 13 13 12 12 13 13 15 18 20 22 24 24 22 20 21 23 25 25 20 13 10 11 9 9 13 18 18 19 25 27 23 22 23 25 23 21 20 19 17 17 16 14 13 12 11 10 8 8 10 10
5 4 2 2 5 7 3 11 11 10 11 10 9 10 10 7 6 4 2 5 6 6 7 10 10 9 10 10 11 12 12 12 12 12 12 13 13 13 13 13 12 12 13 15 18 19 20 22 22 21 20 19 20 24 25 22 17 9 15 16 12 14 20 18 16 21 26 25 23 23 24 24 22 20 19 18 18 17 15 15 14 12 11 11 12 13 11
3 3 3 3 5 4 7 13 13 11 11 10 9 9 9 7 8 6 3 3 4 5 7 10 10 10 11 12 12 11 11 12 13 13 13 13 13 13 13 13 13 13 13 15 17 19 20 21 21 21 21 20 21 25 27 23 19 9 9 17 15 15 18 18 18 20 23 26 24 23 23 23 21 19 18 19 19 17 16 16 14 13 13 14 14 15 13
2 4 4 4 4 2 3 7 10 10 9 8 8 10 10 10 9 6 3 4 5 6 8 9 10 11 12 12 12 11 10 12 12 12 12 12 13 13 13 13 13 13 13 15 17 19 20 21 21 21 21 21 21 25 29 26 23 20 9 1 6 12 14 14 16 18 22 25 24 23 24 23 22 21 21 21 19 18 17 15 14 15 15 15 14 14 12
1 4 5 2 1 2 1 4 7 7 8 9 10 10 11 11 9 6 6 7 8 9 9 9 10 10 11 12 12 11 10 10 10 12 13 12 12 12 12 12 13 13 15 16 18 19 20 20 21 20 20 21 23 27 31 30 30 29 23 16 17 20 19 18 16 16 19 22 23 25 25 25 24 23 22 21 20 20 19 18 18 18 17 15 14 12 12
1 3 3 1 2 2 5 5 8 8 6 9 12 12 12 12 11 9 9 9 9 9 9 9 9 10 11 11 12 13 11 9 9 10 12 12 12 12 12 12 13 15 17 18 18 19 20 20 20 21 21 21 23 29 33 32 32 33 30 27 28 26 23 22 23 21 21 22 23 25 25 25 26 24 22 21 20 20 21 20 19 18 16 15 14 13 13
2 2 1 1 2 4 6 7 10 10 6 5 8 9 12 12 10 9 8 8 9 8 8 8 7 9 10 9 10 12 12 10 10 9 10 11 11 11 12 12 14 16 17 18 18 19 20 20 20 21 22 22 24 29 32 33 32 32 32 33 34 33 28 24 24 24 24 24 24 24 25 26 25 23 22 21 19 18 19 18 18 17 16 15 14 14 14
3 1 2 3 5 4 5 6 7 7 5 4 3 4 7 11 10 9 7 6 7 6 6 6 5 6 5 7 8 11 13 11 11 11 11 12 12 13 14 15 16 16 17 17 18 18 19 20 20 20 21 23 26 29 32 33 32 32 33 34 34 34 31 26 26 25 24 25 26 25 25 24 24 23 21 20 18 18 18 19 19 19 18 17 15 14 13
3 2 3 3 3 2 4 6 6 6 4 3 2 1 3 8 10 9 7 6 6 5 5 4 0 3 1 6 6 9 12 10 10 11 13 14 15 15 15 16 17 17 17 17 18 19 20 20 20 21 22 24 27 30 32 32 31 31 33 33 33 33 31 29 29 28 27 27 27 26 25 23 22 22 21 20 19 19 19 20 20 19 18 18 17 15 14
4 3 3 2 1 2 4 7 7 7 5 3 1 2 2 7 10 9 8 6 6 6 6 6 4 0 3 5 4 7 9 7 9 9 10 14 16 16 17 17 18 18 18 19 19 20 20 20 21 21 23 26 27 27 28 30 30 31 31 31 30 29 29 30 31 31 30 28 27 27 26 23 20 20 20 20 19 18 19 19 18 16 16 17 17 15 14
5 2 2 3 3 2 4 9 8 6 4 2 2 2 2 7 8 8 8 7 7 6 5 5 5 4 5 3 2 6 7 7 9 10 11 13 16 17 18 19 19 19 20 20 21 21 21 21 22 21 21 24 25 25 26 28 28 28 28 28 28 28 28 29 31 31 30 29 28 27 26 24 21 19 18 18 18 18 18 19 18 16 15 15 15 14 12
2 1 4 4 3 2 5 10 9 5 2 1 1 1 2 5 7 7 8 7 7 8 6 6 5 4 4 2 1 4 8 10 11 13 15 17 18 19 20 20 19 19 20 21 21 21 21 21 22 22 22 23 22 23 26 28 26 23 24 25 26 27 28 30 30 30 29 28 26 26 25 24 21 18 16 16 16 16 16 15 15 14 13 13 13 12 11
1 3 4 5 4 3 8 11 8 5 2 1 2 3 3 5 6 7 8 8 9 9 9 8 6 4 3 4 4 7 10 10 12 15 17 17 18 19 20 21 21 19 19 21 21 21 21 21 21 22 22 22 21 21 22 22 22 22 24 24 25 26 26 27 27 26 26 26 25 24 23 22 21 19 17 16 16 15 14 13 13 13 13 13 13 13 13
2 4 4 3 3 4 10 9 4 5 4 2 4 4 5 6 7 8 9 9 9 9 9 8 7 6 5 6 8 8 9 10 11 13 14 14 15 15 17 20 21 20 19 19 20 20 20 20 21 22 22 21 20 19 18 17 18 20 21 21 22 22 22 23 23 23 22 22 22 22 22 21 21 19 16 15 15 14 12 11 11 11 10 10 12 14 14
3 4 4 3 1 3 7 5 5 6 6 5 5 5 6 7 7 7 8 8 8 9 9 8 7 8 7 8 8 8 8 9 9 8 8 8 9 11 13 15 16 18 18 19 19 20 20 20 20 21 22 21 20 18 17 16 16 16 17 18 19 19 19 19 21 21 21 21 21 20 19 18 18 17 15 14 15 14 12 11 11 11 9 8 9 12 13
5 5 2 1 2 2 6 8 8 9 10 9 8 9 7 7 7 7 7 8 9 9 10 9 8 8 8 8 8 7 7 8 9 10 11 10 11 13 14 13 12 14 16 17 18 20 21 21 20 19 20 20 20 19 17 16 16 15 14 15 16 17 18 18 17 17 18 19 18 17 16 15 15 16 15 15 15 14 13 13 13 12 11 10 10 10 11
9 7 4 5 7 9 10 10 10 11 11 10 9 10 9 8 8 8 8 9 9 9 10 10 9 8 8 8 7 7 6 7 10 12 13 14 15 16 17 16 14 14 15 15 16 18 19 20 20 19 18 18 18 18 17 16 16 14 13 13 14 15 17 17 15 14 14 15 15 15 14 14 14 14 13 13 13 13 12 12 12 10 9 9 9 9 9
6 5 6 9 11 11 11 11 12 12 12 11 9 9 9 9 9 9 10 10 10 10 10 9 9 9 8 6 5 4 5 6 9 10 11 11 12 12 14 15 15 15 15 16 16 16 17 17 17 17 17 16 16 15 14 14 14 14 15 15 14 14 14 14 14 13 12 13 13 13 12 13 14 15 14 12 11 12 12 12 12 12 12 11 11 10 8
6 7 10 12 12 12 11 10 10 11 11 12 11 10 10 11 11 11 12 11 10 10 9 8 9 8 7 6 5 4 4 6 6 6 6 7 8 8 9 11 12 13 13 13 14 14 15 15 15 15 15 13 13 12 12 13 12 11 12 13 14 14 14 12 12 12 11 10 11 12 12 13 14 15 14 13 12 12 12 12 12 14 14 14 15 15 13
9 9 11 11 11 12 11 11 11 10 10 11 12 11 11 11 11 10 11 10 9 9 8 8 8 7 6 6 6 5 5 4 4 4 5 5 7 8 8 9 10 11 11 11 11 10 9 10 12 14 13 11 11 11 12 12 10 10 8 8 11 13 13 12 10 11 11 10 9 10 12 14 14 14 13 12 13 13 12 11 11 10 9 10 13 15 13
7 7 8 8 8 8 8 10 11 11 10 11 11 11 11 11 10 10 9 9 10 10 10 9 8 6 5 6 7 7 5 5 4 3 2 3 4 4 4 6 7 7 6 6 6 6 6 7 10 11 11 9 9 9 10 9 9 11 12 9 10 11 11 11 10 9 10 10 8 7 8 10 13 15 14 14 14 14 14 13 11 10 9 9 11 11 10
8 8 9 8 7 7 8 9 10 10 9 9 9 10 10 10 10 10 9 9 8 8 8 8 8 7 8 9 7 5 4 4 5 6 3 3 5 3 4 6 6 5 4 5 6 7 7 9 12 11 9 7 8 7 8 9 9 10 12 12 11 10 9 10 9 8 8 9 8 7 6 6 10 13 14 14 15 15 15 15 14 13 13 12 11 10 9
10 10 10 9 8 9 8 9 9 9 9 9 9 8 8 9 10 9 8 7 7 6 5 5 5 6 6 5 1 4 6 8 7 2 0 4 8 8 8 9 9 9 10 10 11 10 10 12 12 11 9 8 9 8 8 8 8 9 9 10 12 14 13 10 8 6 8 9 8 7 7 5 5 10 12 13 13 13 12 12 14 15 15 15 14 13 12
10 10 10 10 10 9 8 8 8 8 9 10 9 7 8 8 8 9 8 7 6 6 4 3 4 4 4 3 4 6 7 8 8 7 3 3 7 9 10 11 11 12 12 12 12 11 11 12 12 12 10 9 10 8 8 7 8 8 8 9 10 11 12 12 11 8 7 8 8 7 7 7 5 6 9 10 10 9 9 9 11 12 13 14 15 16 16
11 10 9 10 9 7 7 7 7 8 10 11 9 9 8 5 4 6 9 7 6 6 5 3 3 3 3 4 5 7 7 5 4 6 6 7 8 9 10 10 11 12 13 13 12 10 9 8 9 10 11 9 8 6 7 6 6 7 7 6 6 7 9 10 11 10 9 9 11 10 8 9 9 8 6 5 6 7 7 7 8 9 10 11 13 16 18
9 8 8 9 7 6 7 7 7 8 9 10 9 9 8 6 4 7 8 6 6 6 5 3 3 3 4 4 4 3 2 1 4 6 8 9 8 9 10 11 13 13 13 13 13 12 9 7 7 8 9 8 6 6 5 5 5 6 6 5 3 3 6 7 8 9 10 11 14 14 11 10 11 9 7 6 5 5 5 5 6 8 7 8 11 15 18
8 6 6 6 7 7 8 8 8 8 8 8 7 7 6 6 6 6 5 5 5 5 4 3 3 3 3 2 2 1 2 1 5 6 6 7 7 9 12 14 15 16 15 13 14 14 14 14 12 10 8 7 6 6 4 5 5 4 6 7 5 4 6 9 11 11 9 9 11 11 8 6 7 6 5 6 7 6 6 7 6 6 8 8 9 12 15
8 7 6 8 9 9 7 7 8 7 6 5 5 4 4 4 4 4 4 4 3 2 2 2 2 3 2 2 3 4 3 4 6 6 7 9 9 10 12 14 15 16 16 14 14 15 17 17 16 13 11 9 7 4 2 3 5 4 4 7 6 6 8 10 11 12 9 5 7 8 5 4 6 7 7 7 7 7 6 8 8 6 5 7 7 7 11
7 7 7 7 8 8 7 6 5 4 3 4 3 3 4 3 3 3 4 4 3 3 4 3 2 3 3 3 4 5 5 5 6 7 9 11 11 11 11 12 14 15 14 14 14 14 13 13 13 14 13 12 10 5 2 1 3 4 4 5 4 5 7 8 7 8 8 5 5 6 4 3 4 7 9 8 7 7 6 9 10 9 7 7 7 9 12
6 6 7 7 7 7 6 5 4 3 2 3 3 3 3 3 3 4 4 4 5 6 6 5 4 3 3 3 4 5 7 8 8 8 8 8 8 9 10 10 12 14 14 13 13 13 13 14 14 15 15 15 13 9 2 1 1 4 4 4 3 3 5 7 6 6 7 6 5 4 4 3 3 4 6 8 10 10 9 11 12 10 9 10 11 13 15
6 5 5 4 4 5 5 3 3 3 3 3 3 3 3 4 4 4 4 4 6 7 7 6 5 4 3 3 4 3 9 10 8 5 5 5 6 8 9 10 10 12 12 12 12 12 13 14 14 15 16 16 14 11 6 0 1 4 5 3 3 2 3 5 6 6 5 4 4 4 6 7 6 6 6 7 11 13 12 11 11 8 7 7 10 12 14
5 4 4 2 2 4 4 3 3 2 3 3 2 3 2 3 3 4 5 6 6 6 6 6 6 4 2 1 2 5 8 7 4 2 2 4 6 7 9 10 11 12 12 12 13 12 11 12 12 12 14 15 14 14 10 4 2 4 3 2 2 4 5 6 7 5 3 2 3 4 5 6 5 7 7 6 7 9 11 10 8 5 5 6 8 11 12
5 5 5 4 3 3 3 2 2 2 2 2 1 2 2 2 3 5 6 8 8 7 6 5 3 4 5 4 4 4 3 3 2 1 1 4 5 7 9 9 11 13 14 13 12 10 11 12 12 10 10 11 13 15 13 7 3 3 2 2 3 5 5 6 8 6 4 5 6 4 3 4 6 7 7 6 6 6 7 7 5 5 4 5 7 10 12
5 4 5 4 3 3 2 2 3 3 3 2 2 2 2 3 3 3 3 6 7 7 7 4 3 6 5 2 1 2 2 2 2 2 4 5 6 7 8 9 11 14 14 12 9 8 8 10 11 9 7 8 11 16 15 7 2 2 2 3 3 3 4 6 7 6 4 4 5 5 7 7 7 7 6 6 6 5 4 3 3 4 3 4 6 8 10
2 4 4 2 3 3 3 3 2 2 3 3 3 4 3 3 3 3 4 5 6 6 7 3 2 5 3 2 3 4 5 5 5 4 6 7 7 7 8 8 10 13 14 10 6 7 6 10 13 12 8 8 10 13 11 3 3 2 3 4 3 1 3 5 6 6 3 2 4 6 6 5 4 5 6 6 6 5 3 1 3 3 3 4 5 5 7
4 4 4 3 4 4 3 3 4 4 4 4 4 4 4 4 5 5 5 7 7 7 6 5 2 4 6 4 3 5 6 6 6 7 7 8 7 7 9 9 10 13 13 7 7 7 6 10 13 12 7 5 8 8 5 0 3 2 4 5 3 1 1 4 6 5 2 5 9 9 7 6 5 6 7 5 4 4 2 1 3 0 3 4 4 4 4
4 4 4 3 3 2 2 3 4 4 5 5 5 5 5 5 5 5 6 7 8 7 6 6 6 2 5 5 5 7 8 8 9 10 10 10 9 8 9 10 12 13 10 5 6 6 6 9 10 9 5 3 5 5 3 2 2 2 4 5 2 1 1 5 6 4 2 5 8 8 7 6 5 5 4 3 2 2 1 3 3 1 5 5 3 3 3
3 3 2 1 2 3 3 4 4 4 4 5 5 6 6 5 6 7 7 7 8 8 6 6 6 5 4 5 7 9 10 11 11 11 10 10 9 8 10 14 15 11 5 3 5 4 5 7 7 7 6 6 5 3 3 3 3 3 4 5 1 1 2 5 5 5 5 1 4 5 6 7 6 4 2 1 1 3 3 2 2 2 5 5 4 4 3
1 1 1 1 3 4 4 5 5 5 5 6 6 7 7 6 7 8 8 7 7 8 7 6 6 6 6 7 7 7 6 8 11 12 11 9 7 7 11 16 12 4 4 5 4 4 7 6 4 5 7 7 4 2 2 3 2 3 4 5 3 1 2 4 5 7 6 1 2 3 6 9 8 4 1 2 2 3 3 3 3 3 3 5 5 4 4
1 1 1 2 4 5 5 6 5 5 6 6 7 7 7 7 8 9 9 8 7 7 7 7 7 7 7 7 7 8 7 7 9 10 9 7 6 6 9 10 2 8 8 5 7 7 6 4 2 2 4 4 2 1 1 2 2 3 4 5 5 4 3 3 5 7 6 3 1 5 9 10 7 4 1 3 2 2 2 3 4 3 2 3 4 4 3
2 2 2 3 4 5 5 6 6 6 6 7 7 7 7 7 8 9 9 9 8 7 7 7 8 8 8 8 8 8 8 8 7 6 8 9 8 6 7 5 5 10 7 8 9 6 4 2 3 3 2 1 1 1 2 3 4 4 5 7 10 9 6 4 3 5 7 7 1 7 11 8 6 6 3 3 2 3 3 4 4 2 2 2 3 3 2
2 2 3 4 5 5 6 6 6 6 6 7 7 7 7 7 8 8 8 9 8 8 8 8 7 8 9 8 8 8 8 8 8 7 7 10 9 7 6 4 3 8 8 9 8 7 7 4 3 5 5 3 2 2 3 4 6 7 7 10 12 8 4 2 2 4 7 9 3 7 11 9 7 8 6 3 3 4 4 4 4 3 2 2 2 2 1
2 3 4 4 4 5 6 6 7 7 6 6 7 7 7 8 8 8 8 9 9 9 9 8 8 8 9 8 9 8 6 6 7 8 8 10 9 4 4 3 3 6 6 6 6 7 7 5 2 3 4 2 1 3 3 4 6 7 8 10 9 5 3 3 3 4 8 10 7 2 5 8 9 8 6 4 4 4 4 4 4 3 3 2 2 2 1
3 4 4 3 4 5 7 7 7 7 7 7 8 8 8 8 7 7 8 9 8 8 9 8 8 9 8 7 8 8 6 4 6 7 7 7 5 1 4 3 2 5 6 7 6 5 4 6 6 3 1 2 3 4 4 5 7 8 9 10 9 6 4 4 4 4 6 8 9 7 2 4 8 9 8 7 5 4 5 5 5 4 4 3 3 2 2
4 4 3 3 4 6 6 6 7 7 7 8 9 9 7 6 6 7 8 8 8 8 8 8 8 9 8 7 7 7 4 3 7 10 9 8 5 3 6 4 2 4 5 6 5 3 3 5 6 5 5 5 6 6 6 6 7 9 11 11 10 7 5 5 5 5 5 6 8 7 4 1 2 6 9 9 7 5 5 6 6 5 5 5 5 4 4
3 3 4 5 5 5 6 6 7 8 8 8 9 9 7 4 4 5 8 8 8 8 8 8 8 9 8 7 7 5 2 2 5 7 7 7 5 6 7 4 1 2 3 3 2 2 5 8 8 8 9 9 8 8 8 7 8 9 10 11 9 6 6 7 6 4 4 5 7 7 5 4 3 1 6 8 7 5 6 7 7 7 6 6 6 5 5
3 3 4 5 5 6 6 6 6 8 9 8 7 6 5 4 3 4 7 7 7 7 7 7 7 7 6 6 6 5 4 5 6 5 5 5 4 5 7 6 4 2 3 4 3 4 3 6 8 9 9 8 6 6 7 7 8 9 9 9 8 6 6 8 7 4 3 4 6 6 5 5 4 3 2 4 5 5 6 7 7 8 8 7 5 5 5
4 4 4 5 6 7 7 6 5 6 7 8 7 8 8 6 4 5 6 6 6 6 5 3 4 5 5 5 5 5 6 10 10 5 2 3 3 2 4 3 2 0 4 6 3 3 2 6 8 9 8 5 2 3 5 7 7 7 7 5 5 6 6 7 6 2 3 4 5 6 6 6 5 4 4 4 5 6 7 8 8 8 9 8 6 6 6
4 5 5 6 7 6 5 5 6 6 7 8 8 7 7 6 5 5 4 5 6 6 4 2 2 3 4 5 5 6 7 9 11 9 6 5 5 2 0 1 2 3 3 4 4 5 6 4 4 8 8 5 1 3 5 5 5 5 4 4 5 6 7 6 4 2 3 5 6 7 8 8 7 6 6 5 5 6 7 9 9 10 10 8 7 8 8
5 6 6 6 5 5 4 3 4 5 6 6 5 5 5 5 5 4 4 4 5 6 5 3 3 4 4 5 4 4 3 3 6 8 7 5 5 4 2 1 2 4 3 5 7 9 9 6 0 6 8 4 2 4 5 5 5 5 4 3 3 4 5 4 3 3 5 6 7 8 8 7 5 5 6 6 6 6 6 6 8 9 9 9 9 9 9
5 5 5 5 6 6 6 5 4 4 5 6 5 4 6 7 5 3 2 3 3 5 5 4 3 3 2 2 2 1 1 2 5 7 5 3 3 4 2 2 3 4 4 4 6 7 5 5 3 2 4 4 4 6 4 3 4 5 4 3 2 3 4 3 3 3 4 5 6 8 8 8 6 5 6 5 5 6 7 7 7 8 8 9 11 11 10
Wind_Direction
253 221 200 250 263 261 257 257 282 328 24 43 49 36 350 328 301 84 64 87 104 73 56 55 47 40 47 47 43 44 42 39 41 41 37 33 32 29 23 19 16 14 12 13 13 11 8 6 6 7 7 8 9 6 357 342 310 277 277 278 243 211 199 199 188 171 163 166 168 165 161 162 163 160 157 159 156 148 144 146 146 141 139 140 131 117 105
283 258 200 218 301 291 293 44 21 24 45 58 65 44 11 23 79 82 85 100 89 67 60 65 55 46 51 49 43 42 40 38 39 40 39 35 31 29 27 23 20 17 15 16 17 14 11 8 6 7 6 4 6 7 4 357 334 284 250 251 255 225 210 207 191 171 164 168 172 164 160 162 160 155 158 160 151 144 146 145 141 138 139 135 120 112 111
291 298 235 170 303 299 42 56 33 28 43 52 56 40 20 23 47 61 124 112 83 72 69 63 54 48 48 45 42 40 37 35 37 39 40 37 33 30 28 26 24 20 18 20 20 18 16 13 10 8 7 8 11 13 12 5 354 307 241 243 253 222 205 201 192 176 167 168 174 170 161 157 154 153 157 154 147 148 147 140 137 136 133 125 117 118 123
306 354 346 33 23 19 65 52 29 24 35 47 58 48 32 19 11 15 75 99 78 84 79 67 56 51 49 44 37 35 33 33 36 39 39 37 35 33 30 27 26 23 21 20 19 18 17 17 16 13 13 16 19 22 23 18 11 3 240 237 234 210 200 200 198 186 169 164 169 167 155 148 146 143 139 137 140 143 138 135 135 127 120 118 113 113 115
356 29 6 27 51 72 78 34 19 24 28 38 60 53 37 28 12 8 51 63 64 79 76 68 59 50 48 46 37 31 33 34 38 41 39 38 38 36 32 30 29 28 27 24 21 21 19 18 18 18 21 24 25 30 36 33 29 33 31 268 161 145 154 171 181 176 164 160 159 150 140 137 135 131 126 124 127 128 127 129 128 116 114 117 112 109 111
351 46 33 10 261 218 114 29 13 26 39 49 63 54 35 28 22 23 50 57 59 67 69 72 72 59 51 46 39 33 32 34 41 45 42 41 41 39 36 34 33 30 30 30 28 26 24 23 23 24 27 29 31 39 46 44 39 37 34 44 73 90 101 110 118 133 143 145 140 134 133 133 130 127 124 121 120 122 123 122 118 113 114 115 110 110 116
292 83 68 328 260 145 107 61 17 15 49 76 78 64 39 27 23 24 42 59 60 66 78 85 87 79 65 49 34 26 25 31 39 46 47 45 43 42 40 37 36 34 33 34 33 31 28 28 29 30 31 32 35 42 47 48 46 41 33 39 56 65 72 87 97 106 114 117 119 123 127 129 128 126 124 119 116 120 120 116 114 114 113 113 112 116 120
241 190 191 247 128 107 89 61 27 14 24 61 74 65 39 24 21 19 30 58 63 70 92 99 105 107 88 61 34 17 16 28 35 38 47 47 45 47 46 43 41 38 39 40 38 36 34 32 32 31 33 36 38 41 45 47 48 46 37 35 45 51 54 70 88 96 101 103 105 109 115 120 120 120 121 119 117 120 119 114 112 110 105 103 106 112 118
233 225 73 101 137 117 54 36 25 18 17 14 29 71 46 26 20 15 18 48 60 65 93 106 137 150 106 58 34 7 2 20 37 38 41 45 48 52 52 51 48 44 44 45 42 40 39 36 35 34 35 40 43 42 45 45 45 47 43 36 37 41 42 53 72 83 91 95 95 96 100 106 109 113 117 118 118 122 121 116 112 109 107 104 103 105 110
257 224 126 123 170 146 41 16 7 7 0 341 339 120 69 25 15 16 21 41 52 47 49 45 305 204 79 41 23 349 346 8 33 36 37 40 44 51 53 53 52 46 45 46 44 42 41 37 35 34 35 42 45 44 44 46 44 44 44 40 39 40 39 44 58 70 78 83 87 88 88 88 95 105 112 114 116 121 122 117 113 112 113 112 107 104 103
257 238 171 112 111 101 24 352 349 353 338 310 278 176 83 16 10 18 26 37 48 44 33 18 358 328 88 54 7 331 338 13 35 34 35 37 38 41 43 47 49 46 45 46 44 41 39 35 32 33 36 41 44 43 43 46 46 43 42 42 42 44 45 48 55 63 69 73 76 80 82 81 85 94 101 106 111 115 114 112 111 112 117 117 111 106 104
247 251 131 87 82 87 1 332 330 345 343 288 230 204 43 15 11 24 33 36 40 37 39 40 32 51 85 90 321 324 353 35 47 44 44 42 40 39 38 39 45 47 45 45 44 40 38 36 32 33 39 43 42 41 42 45 46 44 44 45 46 47 50 54 57 59 63 66 68 71 75 77 78 83 90 96 103 109 110 111 110 109 112 113 109 103 98
268 81 106 99 95 59 350 323 316 338 352 216 218 22 21 12 18 36 44 48 52 48 53 64 58 55 73 99 290 359 30 44 44 43 46 47 45 43 39 37 41 46 46 46 45 42 40 40 37 35 39 45 44 41 43 44 44 44 45 46 47 47 49 53 56 56 57 60 63 66 71 74 72 71 74 80 87 93 99 105 107 105 102 101 96 91 84
53 102 113 112 110 44 346 319 312 342 348 204 78 57 47 34 43 57 59 65 75 74 71 75 85 92 75 60 47 42 45 44 36 35 38 41 42 41 39 38 38 42 44 45 45 44 41 40 39 35 37 43 44 42 44 44 43 44 45 46 47 46 47 52 56 57 56 57 58 59 65 71 70 64 63 68 73 76 81 86 90 92 92 93 92 90 87
53 94 91 89 94 14 339 324 329 12 21 102 107 86 69 59 65 77 78 79 85 86 88 92 98 106 94 76 69 60 55 55 50 44 39 36 35 37 40 41 38 37 40 42 43 44 44 43 40 36 35 38 41 44 45 43 41 43 44 45 47 47 47 50 54 55 57 59 59 58 58 60 60 58 58 59 62 67 73 76 81 86 89 95 101 99 93
16 72 66 53 64 340 350 17 66 61 60 88 98 90 81 74 82 92 92 91 87 85 92 97 92 90 87 77 72 69 62 59 58 56 55 50 41 38 46 51 47 42 40 38 37 37 40 44 45 41 37 34 35 42 46 43 42 45 45 46 48 49 49 49 49 52 55 55 56 57 55 52 51 51 54 54 52 55 60 65 74 76 72 83 105 110 105
57 75 84 122 137 84 53 65 81 82 80 81 83 88 91 90 95 102 102 99 93 88 91 89 80 77 76 70 68 66 59 51 45 40 41 44 38 31 35 44 51 51 49 44 40 37 36 37 39 41 43 39 33 34 39 40 40 42 45 50 52 51 54 54 51 51 54 54 55 56 55 53 51 51 54 53 50 50 52 57 65 66 61 64 74 83 90
95 89 104 116 100 87 80 79 81 82 82 82 85 91 95 96 100 107 108 102 95 91 89 87 83 79 78 77 73 66 60 55 50 43 37 34 31 27 24 26 34 46 50 46 43 40 37 35 33 32 37 42 38 33 34 36 37 34 37 48 57 56 56 58 57 57 60 61 60 61 63 63 58 55 54 51 50 53 53 56 62 63 67 74 76 78 85
114 93 105 110 102 97 94 88 84 83 83 83 85 87 92 99 102 103 103 102 99 96 92 90 88 86 84 86 87 84 79 66 55 50 43 36 34 32 28 24 28 37 42 39 36 34 31 31 28 24 28 37 41 38 36 36 34 32 34 43 51 53 53 54 54 57 69 76 71 66 68 68 63 61 57 48 48 51 49 52 59 57 59 67 66 62 68
99 102 106 103 96 95 95 92 91 91 88 90 93 94 95 99 102 104 106 106 103 100 97 94 92 89 86 87 88 87 84 78 72 71 62 47 43 42 38 34 33 34 37 37 36 33 28 23 19 16 21 32 35 34 39 39 31 27 38 48 49 44 42 43 44 47 61 82 88 81 77 75 72 69 62 51 49 52 47 48 57 60 62 64 56 45 41
105 112 111 104 95 89 85 87 96 105 108 109 110 109 107 106 106 107 108 107 107 108 107 105 106 103 97 98 96 84 75 73 67 61 58 54 46 38 36 38 36 32 32 34 35 36 32 28 23 14 12 23 29 27 37 41 23 3 17 56 70 59 41 30 32 41 48 61 83 93 91 86 83 82 79 70 63 62 57 52 53 57 64 70 67 60 50
112 111 107 104 101 92 85 87 93 99 107 112 114 114 114 113 113 115 116 116 120 122 117 116 121 119 118 133 132 120 134 174 177 151 120 90 79 77 63 49 40 37 35 30 35 41 41 41 36 19 5 14 25 22 27 33 19 360 2 28 72 81 61 38 32 42 49 47 53 77 98 104 99 92 89 86 80 75 71 66 60 59 62 71 77 73 60
105 105 99 97 98 99 101 103 100 98 101 104 104 105 108 112 118 124 125 124 126 128 124 125 135 142 160 178 168 122 114 145 160 172 169 45 36 67 79 49 32 29 23 13 20 32 40 43 34 14 357 13 26 18 17 25 24 14 10 16 30 39 42 41 39 47 58 52 43 49 70 112 125 112 98 89 83 81 81 80 76 74 72 74 77 70 57
106 104 102 101 101 98 95 89 87 92 100 100 98 99 103 113 121 124 120 112 113 121 126 122 116 122 146 168 145 42 61 65 48 21 162 29 15 17 31 27 15 11 11 8 8 12 25 34 19 346 337 19 34 17 8 20 27 21 17 22 21 13 7 9 13 33 59 56 45 45 46 57 121 132 122 105 92 85 85 86 85 84 81 76 70 65 59
100 99 102 103 97 93 90 82 75 78 85 87 89 89 91 99 111 116 114 111 110 119 127 110 86 80 78 68 34 24 48 55 22 346 338 29 18 14 19 17 9 7 6 1 359 2 11 16 357 329 333 23 41 20 356 11 29 25 20 32 34 18 3 353 351 7 43 46 38 42 43 32 48 105 121 117 109 104 101 97 90 85 82 76 69 62 59
100 105 106 102 98 102 107 102 96 92 88 89 93 94 89 83 77 88 95 98 99 106 113 109 98 88 76 68 47 33 37 38 354 335 352 16 18 13 11 11 7 2 358 354 351 350 352 351 342 338 348 15 40 24 351 360 24 19 13 30 40 26 16 3 352 4 33 39 28 27 29 24 29 48 68 84 109 127 132 131 119 100 85 80 76 66 57
111 116 115 112 113 111 100 94 98 103 100 101 104 101 96 95 85 78 80 80 79 84 90 88 76 68 69 60 41 43 61 10 334 350 8 17 14 2 3 11 7 356 353 349 337 327 321 319 328 342 345 352 20 26 0 356 9 1 356 9 24 27 24 10 353 6 37 42 28 19 15 19 27 33 29 26 52 97 115 126 135 132 115 91 82 75 62
118 114 108 105 106 105 101 101 104 99 89 87 90 90 88 87 86 84 77 69 68 71 77 71 45 35 68 63 355 290 168 333 347 357 5 13 14 5 5 9 0 348 345 340 330 332 342 343 341 341 335 336 3 27 15 352 348 344 348 353 355 8 14 8 3 9 29 48 40 25 11 9 21 22 12 16 28 44 60 65 77 124 142 124 97 82 65
105 101 88 82 89 98 103 102 97 90 85 85 88 90 84 72 68 74 65 50 47 42 41 53 30 7 25 21 342 335 336 336 344 360 12 23 32 24 10 360 349 341 340 339 339 345 350 346 341 339 337 335 345 16 45 352 335 333 338 345 2 26 16 5 3 359 353 24 63 53 25 358 3 6 10 24 26 24 49 66 55 57 103 115 111 93 60
99 102 100 102 111 117 114 106 103 106 108 100 81 61 56 42 35 52 41 6 350 357 1 0 345 336 342 340 329 330 336 343 359 21 30 34 33 21 3 350 341 338 339 340 340 342 342 340 336 334 332 329 328 339 52 51 325 327 334 337 359 23 5 357 1 349 334 356 64 64 26 6 19 13 8 13 17 18 50 76 65 44 35 40 56 67 48
99 101 113 125 130 126 117 115 122 118 82 68 55 43 44 30 22 35 24 346 339 348 346 334 320 322 334 324 316 343 24 36 35 34 34 30 15 359 353 348 340 335 333 332 334 337 341 342 339 333 329 326 317 313 326 104 302 299 306 321 339 354 358 9 15 348 331 353 28 26 355 4 57 51 17 7 9 12 32 64 66 48 25 24 41 48 33
113 114 125 132 126 118 112 105 108 100 71 54 36 23 40 38 18 13 16 359 346 340 333 326 319 312 302 286 291 27 55 50 38 27 21 9 353 347 350 348 336 328 326 324 326 332 336 335 332 330 329 327 316 302 294 141 179 270 284 318 342 319 327 2 9 352 335 352 19 16 4 11 43 69 56 27 16 12 20 49 63 48 26 39 49 39 23
138 132 124 105 70 79 82 71 63 60 66 68 36 0 26 46 16 5 6 354 338 330 325 322 320 319 318 324 49 68 59 33 5 346 338 333 329 337 346 344 332 325 323 319 318 327 333 330 327 327 324 321 315 306 299 283 219 244 278 345 341 282 285 316 331 328 320 341 5 6 358 3 41 72 68 46 31 19 18 34 50 39 36 62 61 38 28
68 71 81 76 62 58 59 56 40 14 34 73 55 326 352 20 19 20 6 342 330 330 326 319 344 45 63 70 74 77 60 6 348 356 326 318 317 327 337 335 326 325 324 316 314 327 335 329 327 327 320 312 307 304 301 290 222 216 274 322 299 277 276 291 299 299 315 355 8 24 37 41 66 82 71 51 50 42 26 24 25 17 34 78 80 56 50
77 81 77 73 77 72 32 13 10 351 348 11 359 332 342 356 4 17 349 317 314 321 318 319 74 80 67 56 128 174 202 254 289 301 308 307 308 318 325 321 321 325 322 314 320 346 347 334 331 331 315 298 294 296 298 295 166 158 256 258 256 273 287 298 307 315 342 12 36 74 84 74 77 87 78 57 54 57 49 25 351 351 27 87 93 70 58
104 109 108 91 69 55 19 348 345 335 326 333 331 319 318 330 341 342 324 312 309 310 311 319 115 131 154 212 220 221 233 250 260 272 291 295 294 303 307 305 313 318 313 314 357 26 358 332 333 331 313 285 279 288 296 297 143 170 255 248 225 244 292 300 311 319 328 42 82 84 78 79 95 94 74 57 58 70 74 19 326 342 30 63 67 57 52
48 54 59 42 35 33 5 336 344 346 328 313 310 309 312 325 336 334 323 314 309 304 304 308 272 181 169 174 232 251 256 262 262 262 272 278 282 291 295 295 302 306 304 324 33 32 346 333 341 343 329 282 266 276 292 16 139 186 254 255 230 174 259 285 298 313 0 86 89 80 66 64 71 69 60 52 57 76 85 291 288 312 95 79 58 53 57
71 61 56 36 16 4 332 323 337 335 315 306 311 315 314 318 322 316 305 302 302 298 294 300 301 241 163 170 225 248 251 257 260 258 260 266 270 276 281 283 288 293 299 341 39 21 344 344 351 352 346 305 282 283 290 276 240 238 266 272 254 125 274 289 301 319 8 91 100 97 91 86 71 54 51 59 80 110 172 268 273 157 124 117 108 98 90
125 119 111 67 324 319 318 318 315 305 301 309 315 314 313 314 309 302 294 294 296 294 288 291 298 288 247 235 247 247 242 247 253 253 253 258 260 261 273 280 279 276 286 34 51 16 342 344 348 355 356 339 325 341 346 295 256 242 278 292 311 106 281 292 305 313 314 40 114 112 110 111 103 75 42 41 169 171 189 246 255 170 140 134 135 132 124
144 126 117 309 306 306 309 311 310 309 312 316 314 313 317 318 308 299 294 291 292 295 296 294 287 280 276 277 282 283 271 253 246 243 246 250 241 241 273 286 282 231 128 82 49 355 329 326 334 0 2 347 330 346 356 312 258 237 278 297 302 268 284 300 304 302 304 312 133 126 113 110 105 86 358 272 216 173 182 218 226 197 155 137 134 134 130
307 323 327 306 301 303 304 304 304 306 308 307 307 313 319 313 298 288 287 290 294 299 302 302 298 295 294 291 295 306 306 270 235 221 223 233 227 237 280 301 341 115 109 54 18 1 342 329 308 329 1 21 51 81 33 335 276 243 257 284 287 266 246 270 288 293 302 307 183 136 124 120 120 125 202 252 228 159 188 232 228 201 168 143 135 133 129
287 306 308 298 291 292 297 302 307 309 305 298 300 310 314 304 293 286 284 289 293 292 293 297 295 292 293 293 291 294 294 281 257 229 221 230 235 250 283 311 69 91 68 16 6 352 316 278 230 238 239 129 146 244 316 325 306 279 265 278 278 262 233 226 268 289 301 306 286 132 129 130 133 135 156 244 233 170 204 249 242 203 186 166 145 142 144
304 311 296 289 291 301 310 313 307 300 299 303 312 319 315 302 295 291 288 289 290 288 288 288 281 273 274 279 282 282 284 290 300 301 279 267 267 262 256 268 44 55 35 14 1 327 299 283 216 199 192 180 219 294 325 319 300 291 287 287 284 271 238 216 275 285 294 302 300 143 145 151 149 146 161 210 208 174 201 242 245 221 201 176 154 147 140
294 281 278 289 312 321 315 304 295 297 308 319 318 313 304 295 292 291 288 288 288 286 286 287 286 284 286 288 289 290 294 302 311 311 301 296 300 288 222 232 349 21 20 7 348 329 332 357 56 165 178 188 299 328 331 298 283 283 288 293 294 285 232 208 233 265 284 298 305 267 169 160 155 155 162 170 173 183 213 239 244 232 214 190 168 159 161
256 263 278 303 322 306 291 292 305 319 328 324 311 299 293 296 301 301 296 292 290 286 284 283 281 281 282 284 289 294 295 285 282 281 275 276 281 206 151 145 44 29 17 356 338 328 350 18 28 30 10 329 318 312 295 276 275 282 288 293 299 300 269 226 219 239 268 288 301 306 282 164 161 165 165 160 161 182 210 231 238 227 211 203 192 185 198
259 267 264 258 262 269 281 306 323 320 308 301 294 286 285 302 321 318 307 300 296 292 288 285 284 284 284 287 294 300 308 310 308 310 310 302 279 180 147 130 64 36 14 355 347 332 322 334 340 336 322 310 303 292 276 264 268 278 284 289 297 303 297 274 245 230 242 271 292 309 331 19 150 160 159 159 163 174 195 219 237 234 217 209 208 208 218
255 267 269 273 285 294 305 318 317 301 285 276 273 275 286 315 340 321 306 303 302 298 292 285 282 285 288 292 295 298 306 294 289 291 293 288 253 185 174 197 235 56 36 7 343 280 294 311 321 322 314 302 289 274 260 251 255 264 275 286 294 296 290 284 272 237 219 257 285 303 322 324 314 160 144 147 156 172 191 209 230 240 234 222 213 213 223
251 262 279 295 305 301 293 289 287 286 288 289 291 305 332 356 349 318 309 304 299 296 295 293 293 296 302 308 311 319 325 307 284 252 240 262 249 175 170 194 200 126 17 334 270 228 279 328 337 333 324 314 296 271 254 247 252 261 270 286 302 308 298 291 285 259 206 233 268 286 297 293 283 269 209 177 178 187 197 206 222 238 240 232 221 216 223
253 261 273 273 265 267 280 294 296 300 315 330 345 2 12 6 335 314 312 308 302 303 308 310 311 318 327 330 325 324 324 321 318 317 302 293 289 139 130 146 172 20 340 321 275 220 314 350 355 354 351 349 325 270 252 245 251 261 270 283 303 311 308 303 298 264 203 222 243 257 269 273 270 264 251 224 203 204 208 210 223 241 244 234 225 226 231
256 264 270 268 263 267 292 315 312 314 334 350 354 355 351 337 316 310 318 321 320 320 320 314 323 343 4 4 342 322 318 326 332 334 329 311 300 298 60 174 218 243 298 319 304 275 269 287 358 14 15 16 345 286 282 277 277 281 282 285 287 285 288 298 306 270 232 237 238 243 253 258 253 245 247 243 235 228 218 206 211 232 243 235 225 230 236
266 272 280 293 303 305 308 309 309 318 330 334 329 322 315 304 299 310 328 333 327 324 328 350 21 34 45 39 6 325 292 295 313 313 302 291 288 288 274 196 209 234 267 308 309 285 254 226 145 25 22 19 307 281 285 294 302 301 290 279 278 273 273 291 304 276 250 246 245 250 264 273 266 252 255 251 239 238 236 217 212 227 242 242 235 235 238
265 272 289 308 315 308 295 285 291 311 313 308 310 325 326 316 309 313 321 322 335 350 358 13 32 33 27 24 10 342 239 247 296 312 319 332 326 309 282 224 232 243 243 265 293 289 253 213 209 14 34 27 325 299 295 308 315 302 279 252 258 271 276 284 287 275 269 267 259 260 272 283 280 270 270 261 234 228 243 248 240 237 240 238 233 234 239